^^
Station Historical Data
Daily Summary for November 8, 2019 Units:  English    Metric   Both
« Previous Day
Next Day »
Daily Weekly Monthly Yearly Custom
  High: Low: Average:
Temperature: 51.4 °F 17.3 °F 32.7 °F
Dew Point: 33.1 °F 14.4 °F 24.3 °F
Humidity: 98% 40% 73%
Wind Speed: 17mph 1mph 7.2mph
Wind Gust: 18mph - -
Wind- - SSW
Pressure: 30.46 in 30.00 in -
Precipitation: 0 in    
Historical Graphs
 
 
Tabular Data for November 8, 2019
Time Temperature Dew Point Pressure Wind Wind Speed Wind Gust Humidity Rainfall Rate (Hourly) solar Conditions
00:00 18.1 °F 14.6 °F 30.46 in SE 9 mph 11 mph 86% 0 in 0.00 W/m2
00:05 18.1 °F 14.6 °F 30.45 in ESE 8 mph 11 mph 86% 0 in 0.00 W/m2
00:10 18.1 °F 14.6 °F 30.45 in ESE 8 mph 10 mph 86% 0 in 0.00 W/m2
00:15 18.2 °F 14.7 °F 30.45 in ESE 7 mph 11 mph 86% 0 in 0.00 W/m2
00:20 18.3 °F 15.1 °F 30.45 in ESE 7 mph 11 mph 87% 0 in 0.00 W/m2
00:25 18.4 °F 15.2 °F 30.45 in ESE 9 mph 11 mph 87% 0 in 0.00 W/m2
00:30 18.4 °F 15.2 °F 30.44 in ESE 10 mph 11 mph 87% 0 in 0.00 W/m2
00:35 18.4 °F 15.2 °F 30.44 in ESE 10 mph 12 mph 87% 0 in 0.00 W/m2
00:40 18.3 °F 15.1 °F 30.44 in SE 9 mph 12 mph 87% 0 in 0.00 W/m2
00:45 17.9 °F 14.7 °F 30.44 in SE 8 mph 11 mph 87% 0 in 0.00 W/m2
00:50 17.7 °F 14.8 °F 30.44 in SE 7 mph 11 mph 88% 0 in 0.00 W/m2
00:55 17.3 °F 14.4 °F 30.43 in SE 7 mph 11 mph 88% 0 in 0.00 W/m2
01:00 17.3 °F 14.6 °F 30.43 in ESE 8 mph 11 mph 89% 0 in 0.00 W/m2
01:05 17.5 °F 14.8 °F 30.43 in SE 8 mph 10 mph 89% 0 in 0.00 W/m2
01:10 17.9 °F 15.5 °F 30.42 in SE 10 mph 10 mph 90% 0 in 0.00 W/m2
01:15 18.2 °F 15.8 °F 30.43 in ESE 7 mph 10 mph 90% 0 in 0.00 W/m2
01:20 18.3 °F 15.6 °F 30.42 in ESE 8 mph 11 mph 89% 0 in 0.00 W/m2
01:25 18.3 °F 15.6 °F 30.42 in ESE 7 mph 11 mph 89% 0 in 0.00 W/m2
01:30 18.3 °F 15.6 °F 30.42 in SE 9 mph 11 mph 89% 0 in 0.00 W/m2
01:35 18.4 °F 15.7 °F 30.42 in ESE 7 mph 11 mph 89% 0 in 0.00 W/m2
01:40 18.4 °F 15.7 °F 30.41 in ESE 8 mph 11 mph 89% 0 in 0.00 W/m2
01:45 18.6 °F 16.2 °F 30.41 in ESE 9 mph 10 mph 90% 0 in 0.00 W/m2
01:50 18.9 °F 16.5 °F 30.40 in ESE 10 mph 11 mph 90% 0 in 0.00 W/m2
01:55 19 °F 16.3 °F 30.40 in ESE 11 mph 11 mph 89% 0 in 0.00 W/m2
02:00 18.8 °F 16.1 °F 30.40 in SE 9 mph 11 mph 89% 0 in 0.00 W/m2
02:05 18.6 °F 15.9 °F 30.39 in ESE 8 mph 11 mph 89% 0 in 0.00 W/m2
02:10 18.6 °F 18.1 °F 30.39 in ESE 10 mph 11 mph 98% 0 in 0.00 W/m2
02:15 18.4 °F 15.7 °F 30.39 in ESE 8 mph 11 mph 89% 0 in 0.00 W/m2
02:20 18.3 °F 15.9 °F 30.38 in ESE 10 mph 12 mph 90% 0 in 0.00 W/m2
02:25 18.3 °F 15.6 °F 30.38 in ESE 12 mph 12 mph 89% 0 in 0.00 W/m2
02:30 18.3 °F 15.9 °F 30.38 in ESE 10 mph 12 mph 90% 0 in 0.00 W/m2
02:35 18.4 °F 16 °F 30.37 in ESE 7 mph 12 mph 90% 0 in 0.00 W/m2
02:40 18.5 °F 16.1 °F 30.37 in East 4 mph 12 mph 90% 0 in 0.00 W/m2
02:45 18.4 °F 15.7 °F 30.37 in East 10 mph 12 mph 89% 0 in 0.00 W/m2
02:50 18.4 °F 16 °F 30.36 in SE 9 mph 10 mph 90% 0 in 0.00 W/m2
02:55 18.5 °F 16.1 °F 30.36 in East 8 mph 11 mph 90% 0 in 0.00 W/m2
03:00 18.4 °F 16 °F 30.36 in ESE 8 mph 11 mph 90% 0 in 0.00 W/m2
03:05 18.5 °F 16.1 °F 30.36 in ESE 8 mph 10 mph 90% 0 in 0.00 W/m2
03:10 18.5 °F 16.1 °F 30.35 in ESE 7 mph 11 mph 90% 0 in 0.00 W/m2
03:15 18.6 °F 16.2 °F 30.35 in ESE 8 mph 11 mph 90% 0 in 0.00 W/m2
03:20 18.5 °F 16.1 °F 30.34 in ESE 7 mph 9 mph 90% 0 in 0.00 W/m2
03:25 18.6 °F 16.2 °F 30.34 in ESE 6 mph 9 mph 90% 0 in 0.00 W/m2
03:30 18.6 °F 16.2 °F 30.34 in ESE 4 mph 9 mph 90% 0 in 0.00 W/m2
03:35 18.7 °F 16.3 °F 30.34 in ESE 5 mph 8 mph 90% 0 in 0.00 W/m2
03:40 18.7 °F 16.3 °F 30.34 in ESE 4 mph 8 mph 90% 0 in 0.00 W/m2
03:45 18.7 °F 16.3 °F 30.33 in ESE 4 mph 8 mph 90% 0 in 0.00 W/m2
03:50 18.6 °F 16.2 °F 30.33 in ESE 5 mph 8 mph 90% 0 in 0.00 W/m2
03:55 18.6 °F 16.2 °F 30.33 in East 3 mph 8 mph 90% 0 in 0.00 W/m2
04:00 18.5 °F 16.1 °F 30.33 in ESE 4 mph 8 mph 90% 0 in 0.00 W/m2
04:05 18.4 °F 16 °F 30.32 in ESE 2 mph 7 mph 90% 0 in 0.00 W/m2
04:10 18.4 °F 16 °F 30.32 in ESE 3 mph 7 mph 90% 0 in 0.00 W/m2
04:15 18.3 °F 15.9 °F 30.32 in ESE 2 mph 7 mph 90% 0 in 0.00 W/m2
04:20 18.2 °F 15.8 °F 30.32 in SE 3 mph 6 mph 90% 0 in 0.00 W/m2
04:25 18 °F 15.6 °F 30.32 in ESE 3 mph 5 mph 90% 0 in 0.00 W/m2
04:30 17.9 °F 15.5 °F 30.31 in ESE 3 mph 5 mph 90% 0 in 0.00 W/m2
04:35 17.9 °F 15.5 °F 30.31 in SE 4 mph 5 mph 90% 0 in 0.00 W/m2
04:40 18 °F 15.8 °F 30.31 in ESE 4 mph 5 mph 91% 0 in 0.00 W/m2
04:45 18 °F 15.8 °F 30.30 in ESE 6 mph 6 mph 91% 0 in 0.00 W/m2
04:50 18.2 °F 16 °F 30.30 in ESE 6 mph 7 mph 91% 0 in 0.00 W/m2
04:55 18.2 °F 15.8 °F 30.30 in SE 3 mph 7 mph 90% 0 in 0.00 W/m2
05:00 18.2 °F 15.8 °F 30.30 in SE 4 mph 7 mph 90% 0 in 0.00 W/m2
05:05 18.2 °F 15.8 °F 30.30 in ESE 6 mph 7 mph 90% 0 in 0.00 W/m2
05:10 18.2 °F 15.8 °F 30.29 in ESE 4 mph 7 mph 90% 0 in 0.00 W/m2
05:15 18.3 °F 16.1 °F 30.29 in ESE 3 mph 7 mph 91% 0 in 0.00 W/m2
05:20 18.4 °F 16.2 °F 30.29 in SE 4 mph 7 mph 91% 0 in 0.00 W/m2
05:25 18.4 °F 16 °F 30.28 in SE 4 mph 7 mph 90% 0 in 0.00 W/m2
05:30 18.5 °F 16.1 °F 30.28 in SE 4 mph 7 mph 90% 0 in 0.00 W/m2
05:35 18.5 °F 16.1 °F 30.28 in ESE 3 mph 7 mph 90% 0 in 0.00 W/m2
05:40 18.5 °F 16.1 °F 30.28 in SE 4 mph 7 mph 90% 0 in 0.00 W/m2
05:45 18.5 °F 16.1 °F 30.27 in SSE 5 mph 7 mph 90% 0 in 0.00 W/m2
05:50 18.4 °F 16 °F 30.27 in SSE 4 mph 7 mph 90% 0 in 0.00 W/m2
05:55 18.5 °F 16.1 °F 30.27 in SSE 5 mph 7 mph 90% 0 in 0.00 W/m2
06:00 18.6 °F 16.2 °F 30.27 in SSE 5 mph 8 mph 90% 0 in 0.00 W/m2
06:05 18.8 °F 16.4 °F 30.27 in SSE 5 mph 8 mph 90% 0 in 0.00 W/m2
06:10 18.9 °F 16.5 °F 30.27 in SSE 3 mph 8 mph 90% 0 in 0.00 W/m2
06:15 19.3 °F 16.8 °F 30.27 in SE 4 mph 9 mph 90% 0 in 0.00 W/m2
06:20 19.6 °F 17.1 °F 30.26 in SSE 7 mph 12 mph 90% 0 in 0.00 W/m2
06:25 19.9 °F 17.4 °F 30.25 in SSE 11 mph 14 mph 90% 0 in 0.00 W/m2
06:30 20.3 °F 17.6 °F 30.25 in SSE 10 mph 15 mph 89% 0 in 0.00 W/m2
06:35 20.5 °F 17.8 °F 30.25 in SSE 9 mph 15 mph 89% 0 in 0.00 W/m2
06:40 20.6 °F 17.9 °F 30.25 in South 11 mph 15 mph 89% 0 in 0.00 W/m2
06:45 20.9 °F 18.2 °F 30.25 in South 7 mph 15 mph 89% 0 in 0.00 W/m2
06:50 21.1 °F 18.4 °F 30.25 in SSE 10 mph 14 mph 89% 0 in 0.00 W/m2
06:55 21.2 °F 18.2 °F 30.24 in SSE 10 mph 14 mph 88% 0 in 0.00 W/m2
07:00 21.3 °F 18.3 °F 30.24 in SSE 6 mph 13 mph 88% 0 in 0.00 W/m2
07:05 21.4 °F 18.4 °F 30.23 in South 11 mph 13 mph 88% 0 in 0.00 W/m2
07:10 21.6 °F 18.6 °F 30.23 in SSE 8 mph 13 mph 88% 0 in 0.00 W/m2
07:15 21.7 °F 18.7 °F 30.23 in SSE 7 mph 13 mph 88% 0 in 0.00 W/m2
07:20 21.9 °F 18.9 °F 30.23 in South 7 mph 13 mph 88% 0 in 0.00 W/m2
07:25 21.9 °F 18.9 °F 30.22 in SSE 7 mph 13 mph 88% 0 in 0.00 W/m2
07:30 22 °F 19 °F 30.22 in South 7 mph 12 mph 88% 0 in 5.00 W/m2
07:35 22 °F 19 °F 30.22 in SSE 4 mph 12 mph 88% 0 in 5.00 W/m2
07:40 22 °F 19 °F 30.22 in SE 9 mph 9 mph 88% 0 in 5.00 W/m2
07:45 22.1 °F 19.1 °F 30.22 in SE 5 mph 9 mph 88% 0 in 9.00 W/m2
07:50 22.1 °F 19.1 °F 30.21 in SSE 6 mph 9 mph 88% 0 in 11.00 W/m2
07:55 22.2 °F 19.2 °F 30.21 in SSE 6 mph 9 mph 88% 0 in 14.00 W/m2
08:00 22.3 °F 19.3 °F 30.21 in SSE 5 mph 9 mph 88% 0 in 18.00 W/m2
08:05 22.5 °F 19.5 °F 30.21 in SSE 5 mph 9 mph 88% 0 in 21.00 W/m2
08:10 22.6 °F 19.6 °F 30.21 in SSE 4 mph 9 mph 88% 0 in 23.00 W/m2
08:15 22.7 °F 19.7 °F 30.20 in SE 5 mph 9 mph 88% 0 in 28.00 W/m2
08:20 22.8 °F 19.8 °F 30.20 in South 7 mph 9 mph 88% 0 in 33.00 W/m2
08:25 23.1 °F 20.1 °F 30.20 in SSE 7 mph 9 mph 88% 0 in 40.00 W/m2
08:30 23.4 °F 20.1 °F 30.20 in South 7 mph 9 mph 87% 0 in 49.00 W/m2
08:35 23.8 °F 20.2 °F 30.21 in South 9 mph 14 mph 86% 0 in 54.00 W/m2
08:40 24.1 °F 20.5 °F 30.21 in South 9 mph 14 mph 86% 0 in 56.00 W/m2
08:45 24.3 °F 20.4 °F 30.21 in SSW 6 mph 13 mph 85% 0 in 65.00 W/m2
08:50 24.4 °F 20.5 °F 30.20 in South 6 mph 13 mph 85% 0 in 67.00 W/m2
08:55 24.5 °F 20.6 °F 30.20 in South 8 mph 10 mph 85% 0 in 76.00 W/m2
09:00 24.7 °F 20.8 °F 30.20 in South 3 mph 9 mph 85% 0 in 76.00 W/m2
09:05 24.9 °F 21 °F 30.20 in South 7 mph 11 mph 85% 0 in 79.00 W/m2
09:10 24.9 °F 20.8 °F 30.20 in South 5 mph 11 mph 84% 0 in 86.00 W/m2
09:15 25.1 °F 21.2 °F 30.20 in SSE 4 mph 10 mph 85% 0 in 98.00 W/m2
09:20 25.2 °F 21.3 °F 30.20 in SSW 2 mph 10 mph 85% 0 in 113.00 W/m2
09:25 25.5 °F 21.3 °F 30.20 in SSW 3 mph 9 mph 84% 0 in 114.00 W/m2
09:30 25.7 °F 21.5 °F 30.20 in South 5 mph 7 mph 84% 0 in 109.00 W/m2
09:35 26 °F 21.8 °F 30.20 in South 4 mph 7 mph 84% 0 in 109.00 W/m2
09:40 26.2 °F 21.7 °F 30.20 in SSW 7 mph 8 mph 83% 0 in 109.00 W/m2
09:45 26.3 °F 21.8 °F 30.19 in SSW 5 mph 8 mph 83% 0 in 128.00 W/m2
09:50 26.5 °F 21.7 °F 30.19 in SSW 8 mph 8 mph 82% 0 in 125.00 W/m2
09:55 26.7 °F 22.2 °F 30.18 in SSW 5 mph 8 mph 83% 0 in 137.00 W/m2
10:00 26.9 °F 22.1 °F 30.18 in South 7 mph 8 mph 82% 0 in 137.00 W/m2
10:05 27 °F 22.5 °F 30.18 in SW 3 mph 8 mph 83% 0 in 158.00 W/m2
10:10 27.3 °F 22.5 °F 30.18 in SSW 5 mph 7 mph 82% 0 in 176.00 W/m2
10:15 27.5 °F 22.7 °F 30.18 in SW 5 mph 7 mph 82% 0 in 153.00 W/m2
10:20 27.6 °F 22.8 °F 30.17 in SW 5 mph 7 mph 82% 0 in 153.00 W/m2
10:25 27.8 °F 23 °F 30.16 in SW 5 mph 7 mph 82% 0 in 209.00 W/m2
10:30 28.2 °F 23.4 °F 30.17 in SW 4 mph 8 mph 82% 0 in 186.00 W/m2
10:35 28.4 °F 23.3 °F 30.16 in SSW 8 mph 8 mph 81% 0 in 202.00 W/m2
10:40 28.6 °F 23.2 °F 30.16 in SSW 6 mph 9 mph 80% 0 in 204.00 W/m2
10:45 29.1 °F 23.7 °F 30.16 in SSW 5 mph 10 mph 80% 0 in 327.00 W/m2
10:50 29.7 °F 24.3 °F 30.16 in SSW 9 mph 10 mph 80% 0 in 253.00 W/m2
10:55 30.3 °F 24.9 °F 30.16 in SSW 6 mph 10 mph 80% 0 in 373.00 W/m2
11:00 30.8 °F 24.7 °F 30.16 in SW 7 mph 11 mph 78% 0 in 304.00 W/m2
11:05 31 °F 24.9 °F 30.16 in SSW 5 mph 11 mph 78% 0 in 260.00 W/m2
11:10 31.3 °F 25.5 °F 30.15 in SW 5 mph 10 mph 79% 0 in 265.00 W/m2
11:15 31.6 °F 25.5 °F 30.15 in SW 6 mph 10 mph 78% 0 in 274.00 W/m2
11:20 31.9 °F 25.5 °F 30.15 in SW 5 mph 10 mph 77% 0 in 253.00 W/m2
11:25 32.5 °F 26.4 °F 30.15 in SSW 5 mph 10 mph 78% 0 in 455.00 W/m2
11:30 32.9 °F 26.2 °F 30.14 in SW 7 mph 10 mph 76% 0 in 257.00 W/m2
11:35 33 °F 25.9 °F 30.14 in WSW 5 mph 10 mph 75% 0 in 246.00 W/m2
11:40 33.2 °F 26.1 °F 30.14 in SW 6 mph 10 mph 75% 0 in 253.00 W/m2
11:45 33.7 °F 26.6 °F 30.14 in SW 4 mph 10 mph 75% 0 in 299.00 W/m2
11:50 34.1 °F 27 °F 30.14 in SSW 3 mph 10 mph 75% 0 in 299.00 W/m2
11:55 34.6 °F 27.5 °F 30.13 in SW 7 mph 9 mph 75% 0 in 290.00 W/m2
12:00 34.9 °F 26.8 °F 30.13 in SW 1 mph 9 mph 72% 0 in 221.00 W/m2
12:05 35.1 °F 26.6 °F 30.13 in WSW 2 mph 9 mph 71% 0 in 265.00 W/m2
12:10 35.5 °F 27 °F 30.12 in SSW 5 mph 9 mph 71% 0 in 260.00 W/m2
12:15 36 °F 27.2 °F 30.12 in WSW 5 mph 6 mph 70% 0 in 272.00 W/m2
12:20 36.4 °F 27.2 °F 30.12 in SW 7 mph 8 mph 69% 0 in 272.00 W/m2
12:25 36.7 °F 28.2 °F 30.12 in SSW 5 mph 8 mph 71% 0 in 230.00 W/m2
12:30 37.1 °F 27.9 °F 30.12 in SSW 7 mph 9 mph 69% 0 in 309.00 W/m2
12:35 37.3 °F 27.7 °F 30.11 in SW 5 mph 10 mph 68% 0 in 367.00 W/m2
12:40 38.1 °F 28.1 °F 30.11 in SW 5 mph 11 mph 67% 0 in 350.00 W/m2
12:45 38.9 °F 28.5 °F 30.11 in SSW 8 mph 11 mph 66% 0 in 603.00 W/m2
12:50 39.4 °F 28.6 °F 30.10 in South 5 mph 10 mph 65% 0 in 350.00 W/m2
12:55 40.2 °F 29 °F 30.09 in SSW 3 mph 10 mph 64% 0 in 605.00 W/m2
13:00 41.4 °F 29.3 °F 30.09 in SSW 6 mph 10 mph 62% 0 in 640.00 W/m2
13:05 41.4 °F 28.1 °F 30.09 in SSW 6 mph 9 mph 59% 0 in 346.00 W/m2
13:10 41.2 °F 27.9 °F 30.09 in SSW 6 mph 9 mph 59% 0 in 383.00 W/m2
13:15 41.5 °F 28.2 °F 30.08 in South 3 mph 7 mph 59% 0 in 359.00 W/m2
13:20 42.2 °F 29.3 °F 30.08 in SSW 3 mph 9 mph 60% 0 in 490.00 W/m2
13:25 42.5 °F 28.3 °F 30.07 in SSW 3 mph 9 mph 57% 0 in 306.00 W/m2
13:30 42.7 °F 28.9 °F 30.07 in SW 7 mph 9 mph 58% 0 in 492.00 W/m2
13:35 43.1 °F 28.5 °F 30.07 in SW 6 mph 9 mph 56% 0 in 418.00 W/m2
13:40 43.5 °F 28.8 °F 30.07 in WSW 9 mph 10 mph 56% 0 in 452.00 W/m2
13:45 43.3 °F 28.2 °F 30.07 in SW 5 mph 10 mph 55% 0 in 455.00 W/m2
13:50 43.4 °F 28.3 °F 30.07 in South 6 mph 9 mph 55% 0 in 320.00 W/m2
13:55 43.9 °F 28.8 °F 30.07 in SSW 4 mph 9 mph 55% 0 in 381.00 W/m2
14:00 44.5 °F 29.3 °F 30.06 in South 6 mph 8 mph 55% 0 in 399.00 W/m2
14:05 45 °F 28.9 °F 30.06 in SSW 7 mph 7 mph 53% 0 in 167.00 W/m2
14:10 45.1 °F 28.5 °F 30.07 in SSW 4 mph 7 mph 52% 0 in 371.00 W/m2
14:15 45.5 °F 29.3 °F 30.06 in SSW 3 mph 7 mph 53% 0 in 380.00 W/m2
14:20 45.7 °F 29.1 °F 30.06 in SSW 5 mph 8 mph 52% 0 in 374.00 W/m2
14:25 46.2 °F 29.5 °F 30.06 in SSW 5 mph 8 mph 52% 0 in 373.00 W/m2
14:30 47 °F 30.3 °F 30.06 in South 2 mph 8 mph 52% 0 in 348.00 W/m2
14:35 47.6 °F 29.4 °F 30.05 in WSW 5 mph 8 mph 49% 0 in 355.00 W/m2
14:40 48 °F 29.2 °F 30.05 in SSW 5 mph 8 mph 48% 0 in 336.00 W/m2
14:45 48.6 °F 29.3 °F 30.05 in SW 7 mph 11 mph 47% 0 in 301.00 W/m2
14:50 48.6 °F 29.8 °F 30.05 in SW 5 mph 11 mph 48% 0 in 301.00 W/m2
14:55 49 °F 30.1 °F 30.04 in SW 3 mph 8 mph 48% 0 in 269.00 W/m2
15:00 49.5 °F 30.1 °F 30.04 in SW 6 mph 8 mph 47% 0 in 264.00 W/m2
15:05 49.9 °F 30.5 °F 30.04 in SSW 5 mph 9 mph 47% 0 in 246.00 W/m2
15:10 50 °F 30 °F 30.04 in SSW 4 mph 9 mph 46% 0 in 225.00 W/m2
15:15 50.3 °F 30.3 °F 30.03 in SSW 7 mph 10 mph 46% 0 in 239.00 W/m2
15:20 50.7 °F 29.6 °F 30.03 in SW 6 mph 10 mph 44% 0 in 225.00 W/m2
15:25 51.1 °F 29.4 °F 30.03 in SW 9 mph 12 mph 43% 0 in 230.00 W/m2
15:30 51.4 °F 28.5 °F 30.02 in SW 8 mph 12 mph 41% 0 in 190.00 W/m2
15:35 51.3 °F 27.8 °F 30.02 in WSW 11 mph 12 mph 40% 0 in 134.00 W/m2
15:40 51.1 °F 27.6 °F 30.03 in WSW 6 mph 12 mph 40% 0 in 139.00 W/m2
15:45 50.7 °F 27.2 °F 30.03 in WSW 9 mph 13 mph 40% 0 in 107.00 W/m2
15:50 50.5 °F 27.7 °F 30.03 in WSW 8 mph 13 mph 41% 0 in 127.00 W/m2
15:55 50.5 °F 27.7 °F 30.03 in SW 7 mph 11 mph 41% 0 in 125.00 W/m2
16:00 50.6 °F 27.7 °F 30.03 in WSW 10 mph 11 mph 41% 0 in 100.00 W/m2
16:05 50.4 °F 27.6 °F 30.02 in WSW 10 mph 11 mph 41% 0 in 88.00 W/m2
16:10 50 °F 27.8 °F 30.02 in WSW 6 mph 11 mph 42% 0 in 76.00 W/m2
16:15 49.5 °F 27.9 °F 30.02 in SW 5 mph 10 mph 43% 0 in 74.00 W/m2
16:20 49.2 °F 27.6 °F 30.02 in WSW 9 mph 14 mph 43% 0 in 72.00 W/m2
16:25 49.2 °F 28.2 °F 30.02 in WSW 10 mph 15 mph 44% 0 in 69.00 W/m2
16:30 49.1 °F 27.5 °F 30.02 in WSW 17 mph 17 mph 43% 0 in 58.00 W/m2
16:35 49.1 °F 28.1 °F 30.01 in WSW 10 mph 17 mph 44% 0 in 51.00 W/m2
16:40 48.8 °F 27.8 °F 30.01 in WSW 10 mph 17 mph 44% 0 in 44.00 W/m2
16:45 48.5 °F 28.1 °F 30.01 in WSW 9 mph 17 mph 45% 0 in 37.00 W/m2
16:50 48.3 °F 27.9 °F 30.01 in WSW 7 mph 17 mph 45% 0 in 28.00 W/m2
16:55 47.8 °F 28 °F 30.01 in West 7 mph 12 mph 46% 0 in 25.00 W/m2
17:00 47.2 °F 28 °F 30.01 in WSW 5 mph 12 mph 47% 0 in 18.00 W/m2
17:05 46.6 °F 27.9 °F 30.01 in WSW 8 mph 12 mph 48% 0 in 14.00 W/m2
17:10 46.4 °F 28.3 °F 30.02 in West 8 mph 13 mph 49% 0 in 11.00 W/m2
17:15 46.1 °F 28.5 °F 30.02 in West 9 mph 13 mph 50% 0 in 7.00 W/m2
17:20 45.8 °F 28.7 °F 30.01 in WSW 9 mph 13 mph 51% 0 in 5.00 W/m2
17:25 45.5 °F 28.4 °F 30.01 in WSW 5 mph 13 mph 51% 0 in 5.00 W/m2
17:30 44.9 °F 28.3 °F 30.01 in WSW 7 mph 12 mph 52% 0 in 0.00 W/m2
17:35 44.9 °F 28.8 °F 30.01 in WSW 10 mph 12 mph 53% 0 in 0.00 W/m2
17:40 45 °F 28.9 °F 30.01 in WSW 9 mph 13 mph 53% 0 in 0.00 W/m2
17:45 44.8 °F 29.2 °F 30.01 in WSW 8 mph 13 mph 54% 0 in 0.00 W/m2
17:50 44.9 °F 29.2 °F 30.00 in WSW 7 mph 13 mph 54% 0 in 0.00 W/m2
17:55 44.6 °F 29.4 °F 30.01 in WSW 7 mph 13 mph 55% 0 in 0.00 W/m2
18:00 44.3 °F 29.1 °F 30.00 in WSW 5 mph 10 mph 55% 0 in 0.00 W/m2
18:05 44.2 °F 29.5 °F 30.00 in WSW 7 mph 10 mph 56% 0 in 0.00 W/m2
18:10 44 °F 29.7 °F 30.00 in West 10 mph 11 mph 57% 0 in 0.00 W/m2
18:15 44.2 °F 29.9 °F 30.00 in WSW 10 mph 11 mph 57% 0 in 0.00 W/m2
18:20 44.4 °F 30.1 °F 30.00 in West 10 mph 13 mph 57% 0 in 0.00 W/m2
18:25 44.2 °F 29.9 °F 30.00 in WNW 8 mph 13 mph 57% 0 in 0.00 W/m2
18:30 43.9 °F 30.1 °F 30.01 in West 9 mph 12 mph 58% 0 in 0.00 W/m2
18:35 43.7 °F 30.3 °F 30.01 in WNW 11 mph 12 mph 59% 0 in 0.00 W/m2
18:40 43.8 °F 30.4 °F 30.01 in WNW 12 mph 13 mph 59% 0 in 0.00 W/m2
18:45 43.9 °F 30.5 °F 30.01 in West 12 mph 14 mph 59% 0 in 0.00 W/m2
18:50 44.1 °F 30.7 °F 30.01 in WNW 14 mph 15 mph 59% 0 in 0.00 W/m2
18:55 44.1 °F 30.7 °F 30.01 in West 12 mph 15 mph 59% 0 in 0.00 W/m2
19:00 43.9 °F 30.9 °F 30.01 in WNW 11 mph 15 mph 60% 0 in 0.00 W/m2
19:05 43.6 °F 30.6 °F 30.01 in West 12 mph 15 mph 60% 0 in 0.00 W/m2
19:10 43.4 °F 30.8 °F 30.01 in West 8 mph 15 mph 61% 0 in 0.00 W/m2
19:15 43.3 °F 30.7 °F 30.01 in West 11 mph 15 mph 61% 0 in 0.00 W/m2
19:20 42.9 °F 30.8 °F 30.01 in West 13 mph 15 mph 62% 0 in 0.00 W/m2
19:25 42.8 °F 31.1 °F 30.01 in West 13 mph 15 mph 63% 0 in 0.00 W/m2
19:30 43.4 °F 31.2 °F 30.01 in West 11 mph 16 mph 62% 0 in 0.00 W/m2
19:35 43.5 °F 31.3 °F 30.02 in West 9 mph 16 mph 62% 0 in 0.00 W/m2
19:40 43.2 °F 31.8 °F 30.02 in WNW 10 mph 16 mph 64% 0 in 0.00 W/m2
19:45 43.5 °F 32.1 °F 30.02 in West 11 mph 16 mph 64% 0 in 0.00 W/m2
19:50 43.6 °F 32.2 °F 30.02 in West 10 mph 15 mph 64% 0 in 0.00 W/m2
19:55 43.5 °F 32.5 °F 30.02 in West 12 mph 13 mph 65% 0 in 0.00 W/m2
20:00 43.6 °F 32.6 °F 30.02 in West 11 mph 14 mph 65% 0 in 0.00 W/m2
20:05 43.9 °F 32.5 °F 30.02 in WNW 12 mph 18 mph 64% 0 in 0.00 W/m2
20:10 43.9 °F 32.5 °F 30.02 in WNW 11 mph 18 mph 64% 0 in 0.00 W/m2
20:15 43.7 °F 32.7 °F 30.02 in West 11 mph 18 mph 65% 0 in 0.00 W/m2
20:20 43.4 °F 32.4 °F 30.02 in West 11 mph 18 mph 65% 0 in 0.00 W/m2
20:25 43.1 °F 32.5 °F 30.02 in WNW 11 mph 15 mph 66% 0 in 0.00 W/m2
20:30 43 °F 32.4 °F 30.02 in West 13 mph 15 mph 66% 0 in 0.00 W/m2
20:35 43 °F 32.4 °F 30.02 in WNW 8 mph 15 mph 66% 0 in 0.00 W/m2
20:40 43.1 °F 32.9 °F 30.02 in West 10 mph 16 mph 67% 0 in 0.00 W/m2
20:45 42.8 °F 32.6 °F 30.02 in WNW 8 mph 16 mph 67% 0 in 0.00 W/m2
20:50 42.5 °F 32.3 °F 30.03 in WNW 9 mph 16 mph 67% 0 in 0.00 W/m2
20:55 42.1 °F 32.3 °F 30.03 in West 12 mph 14 mph 68% 0 in 0.00 W/m2
21:00 42 °F 32.2 °F 30.03 in WNW 14 mph 14 mph 68% 0 in 0.00 W/m2
21:05 42.1 °F 32.7 °F 30.03 in WNW 13 mph 15 mph 69% 0 in 0.00 W/m2
21:10 42 °F 32.6 °F 30.03 in WNW 12 mph 16 mph 69% 0 in 0.00 W/m2
21:15 41.7 °F 32.3 °F 30.03 in West 13 mph 16 mph 69% 0 in 0.00 W/m2
21:20 41.4 °F 32.3 °F 30.03 in West 12 mph 16 mph 70% 0 in 0.00 W/m2
21:25 41.1 °F 32.1 °F 30.03 in West 11 mph 16 mph 70% 0 in 0.00 W/m2
21:30 41.2 °F 32.2 °F 30.03 in WNW 8 mph 16 mph 70% 0 in 0.00 W/m2
21:35 41.2 °F 32.5 °F 30.04 in WNW 9 mph 16 mph 71% 0 in 0.00 W/m2
21:40 41 °F 32.3 °F 30.04 in West 11 mph 16 mph 71% 0 in 0.00 W/m2
21:45 40.7 °F 32 °F 30.04 in WNW 10 mph 14 mph 71% 0 in 0.00 W/m2
21:50 40.7 °F 32 °F 30.04 in WNW 8 mph 14 mph 71% 0 in 0.00 W/m2
21:55 40.7 °F 32 °F 30.05 in West 9 mph 14 mph 71% 0 in 0.00 W/m2
22:00 40.4 °F 32.1 °F 30.05 in WNW 9 mph 14 mph 72% 0 in 0.00 W/m2
22:05 40.6 °F 32.3 °F 30.05 in WNW 5 mph 14 mph 72% 0 in 0.00 W/m2
22:10 40.6 °F 32.3 °F 30.05 in WNW 9 mph 14 mph 72% 0 in 0.00 W/m2
22:15 40.4 °F 32.1 °F 30.05 in WNW 5 mph 14 mph 72% 0 in 0.00 W/m2
22:20 40.4 °F 32.1 °F 30.05 in WNW 13 mph 14 mph 72% 0 in 0.00 W/m2
22:25 40.2 °F 31.9 °F 30.05 in WNW 10 mph 14 mph 72% 0 in 0.00 W/m2
22:30 40.1 °F 32.1 °F 30.05 in WNW 8 mph 14 mph 73% 0 in 0.00 W/m2
22:35 40.1 °F 32.1 °F 30.06 in WNW 11 mph 15 mph 73% 0 in 0.00 W/m2
22:40 40.2 °F 32.2 °F 30.05 in WNW 7 mph 15 mph 73% 0 in 0.00 W/m2
22:45 40.3 °F 32.3 °F 30.05 in NNW 9 mph 15 mph 73% 0 in 0.00 W/m2
22:50 40.5 °F 32.5 °F 30.05 in WNW 8 mph 15 mph 73% 0 in 0.00 W/m2
22:55 40.6 °F 32.6 °F 30.06 in WNW 11 mph 13 mph 73% 0 in 0.00 W/m2
23:00 41.1 °F 32.8 °F 30.06 in NW 8 mph 14 mph 72% 0 in 0.00 W/m2
23:05 41.2 °F 32.9 °F 30.06 in NW 11 mph 14 mph 72% 0 in 0.00 W/m2
23:10 41.1 °F 33.1 °F 30.06 in NW 6 mph 14 mph 73% 0 in 0.00 W/m2
23:15 40.9 °F 32.9 °F 30.06 in NW 9 mph 12 mph 73% 0 in 0.00 W/m2
23:20 40.8 °F 32.8 °F 30.06 in NW 7 mph 12 mph 73% 0 in 0.00 W/m2
23:25 40.6 °F 32.6 °F 30.06 in NW 5 mph 12 mph 73% 0 in 0.00 W/m2
23:30 40.2 °F 32.6 °F 30.06 in NW 8 mph 10 mph 74% 0 in 0.00 W/m2
23:35 39.7 °F 32.4 °F 30.06 in NW 4 mph 9 mph 75% 0 in 0.00 W/m2
23:40 39.4 °F 32.5 °F 30.06 in NNW 2 mph 9 mph 76% 0 in 0.00 W/m2
23:45 39.4 °F 32.5 °F 30.06 in NW 4 mph 11 mph 76% 0 in 0.00 W/m2
23:50 39.2 °F 32.3 °F 30.06 in NNW 3 mph 11 mph 76% 0 in 0.00 W/m2
23:55 38.8 °F 31.9 °F 30.07 in NNW 1 mph 8 mph 76% 0 in 0.00 W/m2
Bismarck, North Dakota, USA
Compliments of Weather Underground - 4 mb